Temperature
19 18 18 18 19 20 20 20 20 20 21 20 20 19 19 19 19 19 19 19 19 19 19 19 20 20 20 19 19 19 18 18 18 17 17 17 17 17 17 16 16 16 16 16
18 18 19 19 19 20 20 20 19 20 20 20 19 19 19 19 19 19 19 18 19 19 19 19 19 19 19 19 19 18 18 18 18 17 17 17 17 16 16 16 16 16 16 16
19 19 20 20 20 20 19 19 19 20 20 19 20 19 19 19 19 19 19 19 19 19 19 19 19 19 19 18 18 18 18 18 17 17 17 16 16 16 16 16 16 16 16 16
19 19 20 20 20 20 19 20 20 20 19 18 19 18 18 18 17 17 18 18 18 19 19 19 19 18 18 18 18 18 18 17 17 17 16 17 16 16 16 16 16 16 15 15
19 20 20 20 20 20 20 20 20 19 18 17 18 17 17 17 17 17 17 17 18 18 18 18 18 18 18 18 18 17 17 17 17 17 16 16 16 16 16 16 16 15 15 15
19 20 20 20 21 21 20 19 18 16 16 17 18 17 17 16 17 17 17 17 17 18 18 18 18 18 17 17 17 17 17 17 17 17 16 16 16 16 16 16 16 15 15 15
20 20 20 21 21 20 20 18 17 18 16 17 17 17 17 17 17 17 17 17 17 17 18 17 17 17 17 17 17 17 17 17 16 16 16 16 16 16 16 16 15 15 15 15
19 19 20 20 20 19 18 18 17 18 17 16 17 17 17 17 17 17 17 17 17 17 17 17 17 17 17 17 17 16 16 16 16 16 16 16 16 16 15 15 15 15 15 15
18 18 20 21 21 19 18 17 17 16 16 16 16 17 17 17 17 16 16 16 16 16 17 17 17 16 16 16 16 16 16 16 16 16 16 16 15 15 15 15 15 15 15 15
18 18 20 20 20 19 18 16 15 16 16 17 17 17 17 17 17 16 15 15 16 16 16 16 16 16 16 16 16 16 16 16 16 16 16 15 15 15 15 15 15 15 15 15
18 18 19 19 19 19 18 17 15 14 15 16 16 17 17 16 16 15 15 15 16 16 16 16 16 16 16 16 16 16 16 16 16 16 16 15 15 15 15 15 15 15 15 14
17 16 16 18 19 19 19 17 15 16 16 15 15 16 17 16 15 15 15 16 16 16 16 16 16 16 16 16 16 16 16 16 15 15 15 15 15 15 15 15 15 15 14 14
17 16 16 17 18 18 18 17 16 15 14 14 15 17 16 15 15 15 15 15 16 16 16 16 16 16 16 16 15 15 15 15 15 15 15 15 15 15 15 15 15 15 14 14
17 15 16 17 17 17 17 17 16 15 15 15 15 16 16 15 14 14 15 15 15 15 15 15 15 15 15 15 15 15 15 15 15 15 15 15 15 15 15 15 15 14 14 14
15 15 16 16 17 17 17 17 17 16 16 16 16 16 16 15 14 14 14 14 15 15 15 15 15 15 15 15 15 15 15 15 15 15 15 15 15 15 14 14 14 14 14 14
13 15 16 16 17 17 17 17 17 17 16 16 16 16 15 15 15 14 14 14 14 14 15 15 15 15 15 15 15 15 15 15 15 15 15 14 14 14 14 14 14 14 14 14
13 14 15 15 16 17 16 16 16 16 16 16 16 15 14 14 13 14 14 14 14 14 15 15 15 15 15 15 15 15 15 14 14 14 14 14 14 14 14 14 14 14 14 13
12 12 12 14 16 16 16 16 16 15 15 14 15 14 14 14 14 14 15 15 14 15 15 15 15 15 15 15 14 15 14 14 14 14 14 14 14 14 13 13 13 13 13 13
11 12 12 12 14 15 15 15 15 15 15 14 14 13 13 13 13 13 15 15 15 15 15 15 15 15 14 14 14 14 14 14 14 14 14 13 13 13 13 13 13 13 13 13
11 11 12 12 14 15 15 15 15 15 15 14 13 12 13 13 13 13 14 14 15 15 15 15 15 15 14 14 14 14 14 13 13 13 13 13 13 13 13 13 13 12 12 12
12 12 12 12 13 13 13 14 15 15 14 13 13 13 13 13 14 14 14 14 14 14 14 14 14 14 14 14 13 13 13 13 13 13 13 13 13 13 13 13 12 12 12 12
12 12 12 11 13 13 13 13 13 13 13 13 13 13 13 14 14 14 14 14 14 14 13 13 13 13 13 13 13 13 13 13 13 13 13 13 13 12 12 12 12 12 12 12
11 11 10 11 11 11 12 12 13 13 13 13 13 14 14 13 13 14 14 14 14 13 13 13 13 13 13 13 13 13 13 13 13 13 12 12 12 12 12 12 12 12 12 12
10 10 10 10 11 11 11 12 13 13 13 13 14 14 13 13 13 13 13 13 13 13 13 13 13 13 12 12 13 13 13 12 12 12 12 12 12 12 12 12 11 11 11 11
9 10 10 10 10 10 11 12 12 13 13 13 13 13 13 13 13 13 13 13 13 13 12 12 12 12 12 12 12 12 12 12 12 12 12 12 12 12 11 11 11 11 11 11
9 9 10 10 10 9 11 12 12 12 12 13 13 13 13 13 13 13 13 13 12 12 12 12 12 12 12 12 12 12 12 12 12 12 11 11 11 11 11 11 11 11 11 11
Wind_Speed
4 4 5 8 8 6 4 3 3 4 3 1 3 4 5 2 1 1 2 3 2 2 2 2 3 3 3 3 3 4 5 5 5 3 3 2 2 1 1 1 2 3 3 4
4 5 8 5 5 4 4 2 3 4 1 1 1 3 3 1 2 2 3 3 3 2 1 1 2 3 3 4 4 4 5 5 4 3 2 2 2 1 1 1 1 3 3 4
8 6 4 5 4 5 4 6 6 4 3 3 1 4 3 2 1 1 1 2 2 3 3 3 3 4 4 4 4 5 5 5 4 3 3 3 3 2 1 1 1 1 3 4
6 5 4 5 5 6 5 7 7 5 2 2 1 3 5 3 2 1 1 1 2 2 3 3 3 4 4 4 4 3 4 4 4 4 5 5 4 3 2 2 1 1 2 3
7 5 6 7 7 8 6 2 3 3 4 0 1 3 7 2 2 3 2 3 3 3 3 4 4 4 3 3 4 4 4 3 3 4 5 5 3 2 2 2 2 2 1 2
5 4 6 7 4 6 5 5 5 5 4 1 4 4 6 4 5 4 3 3 3 3 2 1 2 3 3 3 3 3 4 3 3 4 4 5 4 4 3 2 2 1 1 1
2 3 4 5 4 2 5 5 3 3 2 5 2 3 7 6 5 5 5 5 3 3 3 3 3 4 3 4 4 4 4 3 3 4 3 3 4 5 4 3 2 2 2 1
4 5 5 5 7 7 6 9 7 5 5 4 1 5 6 4 2 2 3 4 3 3 3 3 4 4 4 4 4 4 4 3 4 3 2 2 3 3 2 3 3 3 2 2
7 6 3 3 4 10 7 5 7 6 3 1 4 5 5 1 1 2 3 3 4 3 2 3 4 4 4 4 4 4 4 4 4 3 3 2 2 3 3 3 2 2 2 2
7 4 3 2 4 2 6 9 6 6 5 3 4 4 5 5 3 3 3 3 3 2 1 1 3 4 4 4 4 4 4 4 3 4 3 3 2 3 3 3 3 3 3 3
5 4 2 1 4 6 4 5 5 5 5 6 4 6 5 7 7 6 5 4 4 3 3 2 2 3 4 4 4 3 4 3 2 3 3 3 3 3 3 3 3 3 3 3
4 5 2 4 3 3 5 7 8 6 5 5 5 6 3 5 5 5 5 3 3 3 4 3 4 4 4 4 3 3 3 3 2 3 3 3 3 3 3 3 3 3 3 3
5 5 2 4 3 2 2 3 5 6 5 5 5 6 2 2 4 4 4 3 3 3 4 4 4 4 4 4 4 3 3 3 3 4 4 4 3 3 3 3 3 3 3 3
4 4 6 8 7 4 1 2 5 5 5 6 8 6 3 2 4 4 4 3 4 4 4 4 3 3 3 3 3 4 3 3 3 4 4 4 2 2 2 3 3 3 3 3
4 4 4 3 3 3 3 4 5 5 7 8 8 7 7 7 6 6 4 4 5 4 4 4 4 2 2 2 2 3 3 3 4 4 4 3 2 2 2 2 3 2 2 2
3 4 3 0 1 2 1 2 4 4 4 4 4 5 3 4 5 5 5 5 4 4 4 4 4 3 2 3 2 3 3 3 4 4 3 2 2 2 2 2 2 2 2 2
2 4 4 2 1 2 2 3 3 3 2 4 6 6 5 5 6 7 6 6 5 5 4 5 4 4 3 3 3 3 3 4 4 4 3 2 2 2 1 1 2 2 1 1
4 4 3 2 3 4 5 1 2 3 1 1 2 3 5 5 4 3 5 7 6 5 4 4 4 3 3 3 3 3 4 4 4 4 3 2 2 2 1 2 1 1 1 1
4 6 4 4 4 3 3 0 1 2 1 1 3 3 4 4 4 2 1 4 5 5 4 3 4 4 4 3 3 4 4 4 3 3 2 2 2 2 2 2 1 1 1 1
4 4 5 4 4 5 4 3 2 2 1 1 2 3 4 4 3 2 2 2 3 3 3 3 4 4 5 3 4 5 4 4 3 3 2 2 2 2 2 2 1 0 1 2
3 3 3 3 3 4 3 4 1 3 4 2 2 3 4 4 4 3 3 3 3 3 3 4 5 4 4 4 4 4 4 3 3 2 2 2 1 2 2 2 1 1 1 1
2 2 2 3 3 4 3 1 3 3 1 2 2 3 4 2 2 3 4 3 4 4 4 5 5 4 3 4 5 4 3 2 2 2 2 1 1 1 2 2 1 1 1 1
1 2 3 3 3 1 1 1 1 1 1 1 1 1 3 3 2 2 3 3 4 4 4 4 5 4 2 3 4 4 2 2 2 2 1 1 1 1 1 2 2 1 1 1
2 1 1 1 2 3 3 2 2 2 1 0 1 2 4 3 2 2 3 3 3 3 4 4 5 4 2 1 2 3 2 3 3 2 1 1 1 1 1 1 1 1 1 2
2 1 1 0 2 3 4 3 2 3 2 2 2 2 3 4 2 2 3 3 4 3 3 3 4 4 2 1 1 1 3 4 3 2 2 1 1 1 1 0 1 2 2 3
1 1 2 3 3 2 3 3 2 1 1 0 2 2 2 3 3 3 3 3 4 4 4 3 3 3 2 2 1 1 2 4 4 3 2 1 1 1 1 0 1 2 1 3
Wind_Direction
114 106 200 209 193 183 163 172 238 259 262 157 221 250 278 289 274 234 195 188 182 189 209 158 155 148 145 146 139 152 152 148 143 146 154 160 176 176 164 168 151 162 168 166
76 236 223 182 170 166 170 212 260 293 341 134 236 286 279 262 252 218 191 188 186 156 83 127 151 155 169 170 161 159 157 151 149 161 166 160 147 150 150 128 118 147 157 160
184 229 175 158 167 172 207 201 218 230 352 30 71 323 314 312 347 17 156 180 187 185 188 193 182 183 179 171 178 180 169 155 146 136 119 101 80 74 83 102 129 148 155 159
214 234 177 178 198 175 233 220 201 195 135 289 120 268 289 286 312 307 198 193 217 208 198 201 197 190 189 191 185 174 159 153 144 142 145 144 156 161 182 172 155 129 143 159
221 197 176 195 207 176 207 190 167 171 156 160 344 190 279 304 284 267 247 222 222 218 204 202 199 188 177 175 167 161 149 148 147 152 157 155 155 151 128 113 108 101 106 137
223 205 188 197 189 165 150 82 61 55 83 227 232 185 271 242 232 241 230 217 207 206 198 166 137 135 137 137 139 137 141 146 147 148 159 163 158 144 131 128 126 124 124 120
271 250 217 173 143 126 120 101 41 5 17 247 233 195 248 249 233 212 210 205 197 188 171 154 142 147 144 137 143 144 140 136 140 145 166 174 165 155 161 161 156 151 138 132
191 254 219 188 177 174 168 145 159 192 214 264 277 228 251 263 247 188 178 170 163 168 171 168 163 158 152 148 146 142 136 137 138 144 163 174 159 152 160 161 161 158 154 147
181 237 267 209 172 144 143 169 162 139 156 219 269 273 297 278 164 145 151 155 179 188 173 164 154 146 150 152 147 142 141 141 144 149 140 149 153 144 149 150 142 134 127 126
159 207 257 227 97 66 147 145 113 132 156 224 265 255 241 233 221 209 192 192 202 202 185 159 153 147 144 143 130 127 134 141 149 153 154 146 131 143 142 131 124 120 113 109
138 163 282 100 169 177 122 118 122 130 156 163 225 259 227 208 200 199 207 205 195 191 188 169 149 142 135 126 124 128 124 117 123 129 122 122 126 120 115 119 125 127 118 118
148 129 218 258 262 188 163 162 148 155 200 177 183 255 281 201 189 182 191 192 180 165 157 144 137 132 132 135 139 141 133 132 139 131 124 123 121 113 108 112 115 119 120 121
140 125 101 343 342 24 110 145 151 135 132 162 180 250 317 120 143 167 174 168 150 130 126 120 124 135 143 148 150 147 142 139 133 129 126 117 117 123 126 122 114 113 117 116
122 129 171 197 211 190 191 188 162 139 162 195 211 225 247 187 167 170 168 155 136 125 127 126 131 139 144 150 147 140 138 132 132 130 127 124 127 132 135 127 122 124 127 127
117 157 193 215 212 167 200 226 192 187 192 194 215 210 223 204 189 175 158 139 126 125 128 135 145 157 146 122 108 121 133 128 129 129 130 136 127 119 110 111 118 122 129 140
82 156 161 239 212 154 182 264 201 208 201 202 204 234 220 169 145 145 151 149 151 156 152 149 147 164 153 136 127 131 139 138 131 132 138 134 125 120 119 121 125 119 122 132
92 134 140 210 261 68 269 245 200 201 213 186 212 222 157 155 165 173 172 171 172 170 159 160 162 173 169 157 152 157 147 136 133 136 135 132 135 131 131 144 137 145 149 139
142 122 133 138 103 214 239 262 148 141 180 210 184 178 165 170 165 169 172 175 177 177 173 170 160 150 136 125 124 133 131 132 138 141 143 143 140 145 132 115 147 169 162 162
151 139 129 135 164 248 285 266 146 149 243 171 151 142 126 111 86 48 195 176 180 185 181 175 164 150 135 131 134 128 123 122 128 140 150 164 161 159 145 132 162 189 167 179
73 98 119 132 154 215 245 292 284 122 255 233 144 148 142 122 137 227 211 161 160 165 160 151 142 125 128 134 132 128 131 137 155 177 180 176 162 156 161 162 143 119 160 197
63 64 119 151 182 246 287 304 117 157 238 220 181 176 164 174 191 188 157 145 144 139 136 131 135 136 145 141 131 139 146 169 186 171 155 148 157 168 161 141 128 122 134 160
149 141 156 145 167 245 328 59 162 214 230 132 149 166 164 162 118 127 140 145 132 124 123 129 131 136 141 141 144 151 174 188 144 126 122 133 154 166 145 137 132 128 131 149
128 188 178 176 196 247 336 209 282 148 117 124 143 159 141 120 103 114 130 139 133 131 130 125 126 125 121 144 155 163 188 155 135 123 139 161 145 111 134 147 149 139 140 177
348 21 106 73 338 345 350 8 23 51 77 60 125 120 128 123 112 108 121 135 132 123 124 123 121 121 128 154 162 167 158 142 129 132 144 157 148 115 109 136 157 172 194 206
312 356 46 19 309 346 346 345 0 27 39 60 69 97 132 126 120 135 144 148 147 135 128 129 132 141 158 153 150 154 146 138 133 143 151 151 152 161 164 178 199 204 219 208
297 230 208 230 220 203 264 299 354 31 1 129 121 101 113 140 161 156 151 151 148 149 143 137 136 141 150 140 152 164 155 149 150 156 160 168 171 167 171 185 352 340 269 259
Height
1475 1482 1486 1484 1483 1485 1488 1492 1495 1491 1484 1487 1489 1488 1484 1482 1482 1481 1482 1482 1483 1484 1486 1486 1487 1488 1490 1491 1493 1495 1496 1497 1500 1501 1502 1503 1504 1505 1506 1506 1507 1508 1509 1511
1480 1483 1477 1477 1480 1483 1487 1493 1494 1489 1484 1486 1489 1489 1484 1482 1481 1481 1481 1481 1482 1483 1484 1485 1486 1487 1488 1490 1492 1494 1495 1496 1498 1500 1501 1502 1503 1504 1505 1505 1506 1507 1508 1510
1478 1475 1472 1476 1480 1484 1487 1491 1490 1490 1487 1486 1489 1492 1487 1482 1481 1481 1481 1481 1481 1482 1483 1484 1485 1486 1487 1489 1490 1492 1494 1495 1497 1498 1500 1501 1501 1502 1503 1504 1504 1506 1507 1509
1474 1470 1471 1475 1478 1481 1488 1480 1482 1486 1494 1500 1495 1507 1491 1485 1482 1480 1480 1480 1481 1481 1482 1482 1483 1484 1485 1487 1489 1491 1493 1494 1495 1497 1498 1499 1500 1500 1502 1503 1504 1505 1506 1508
1471 1468 1470 1474 1473 1475 1479 1476 1480 1484 1493 1500 1498 1505 1497 1486 1485 1481 1479 1479 1479 1480 1480 1481 1482 1483 1485 1486 1488 1490 1493 1494 1495 1496 1497 1499 1500 1500 1501 1502 1503 1504 1505 1507
1465 1463 1464 1466 1466 1469 1473 1479 1485 1493 1499 1509 1500 1504 1499 1488 1482 1479 1478 1478 1478 1478 1479 1480 1481 1483 1484 1485 1488 1489 1491 1493 1495 1496 1497 1498 1498 1499 1501 1502 1503 1503 1505 1506
1467 1463 1461 1461 1467 1470 1473 1489 1505 1508 1515 1511 1497 1500 1495 1478 1475 1475 1475 1475 1476 1477 1478 1479 1480 1481 1483 1484 1486 1489 1490 1492 1494 1495 1496 1497 1498 1499 1500 1501 1502 1503 1504 1505
1475 1475 1460 1458 1462 1470 1475 1483 1503 1512 1515 1509 1498 1499 1485 1474 1472 1472 1473 1474 1475 1476 1477 1478 1479 1481 1482 1484 1486 1487 1489 1491 1493 1494 1495 1496 1498 1499 1500 1501 1502 1503 1504 1505
1473 1472 1456 1454 1455 1462 1474 1480 1481 1498 1503 1508 1503 1492 1480 1472 1472 1473 1473 1474 1474 1475 1476 1476 1478 1480 1482 1483 1485 1487 1488 1490 1492 1493 1494 1495 1496 1498 1499 1501 1502 1503 1504 1505
1461 1469 1459 1455 1455 1459 1463 1473 1487 1498 1509 1511 1500 1494 1488 1476 1474 1473 1474 1473 1474 1475 1476 1476 1477 1479 1481 1483 1485 1486 1488 1490 1492 1493 1495 1495 1496 1497 1499 1501 1502 1503 1505 1506
1456 1466 1464 1459 1461 1464 1469 1475 1482 1493 1495 1506 1508 1496 1472 1471 1471 1472 1472 1472 1473 1474 1475 1476 1477 1478 1481 1483 1485 1486 1488 1490 1491 1493 1495 1496 1496 1498 1499 1501 1502 1503 1505 1506
1455 1466 1472 1464 1456 1454 1459 1466 1477 1489 1494 1496 1499 1492 1467 1466 1467 1469 1470 1471 1472 1473 1474 1475 1477 1478 1481 1482 1484 1486 1488 1490 1491 1493 1495 1496 1497 1498 1500 1501 1503 1504 1505 1506
1453 1466 1477 1474 1468 1461 1461 1464 1468 1476 1488 1496 1497 1486 1466 1466 1467 1468 1469 1470 1471 1473 1474 1476 1477 1478 1480 1482 1483 1485 1487 1489 1491 1493 1495 1496 1497 1499 1500 1501 1503 1504 1505 1506
1449 1462 1470 1474 1468 1462 1463 1464 1466 1473 1485 1488 1483 1476 1469 1467 1467 1468 1469 1469 1470 1472 1474 1476 1478 1479 1480 1482 1483 1485 1487 1489 1491 1493 1494 1496 1497 1499 1500 1502 1503 1504 1505 1506
1449 1461 1461 1459 1456 1457 1459 1460 1462 1467 1470 1475 1471 1470 1466 1465 1465 1467 1468 1469 1470 1472 1473 1475 1478 1479 1481 1482 1484 1485 1487 1489 1491 1493 1494 1496 1498 1499 1500 1501 1502 1503 1505 1506
1451 1457 1458 1460 1456 1456 1459 1458 1458 1461 1463 1465 1465 1466 1461 1462 1464 1466 1468 1469 1470 1471 1473 1475 1477 1479 1480 1482 1484 1486 1487 1489 1491 1492 1494 1496 1497 1499 1500 1501 1502 1503 1504 1505
1455 1458 1463 1466 1459 1457 1465 1459 1459 1460 1460 1461 1464 1461 1460 1462 1463 1464 1466 1468 1469 1471 1472 1474 1476 1478 1480 1482 1483 1485 1487 1489 1490 1492 1494 1495 1497 1498 1499 1500 1501 1502 1503 1504
1455 1460 1466 1468 1465 1473 1463 1454 1454 1457 1458 1458 1458 1458 1459 1459 1461 1463 1465 1466 1468 1470 1472 1474 1475 1477 1479 1481 1483 1485 1487 1488 1490 1492 1493 1495 1496 1497 1498 1499 1500 1501 1502 1503
1450 1457 1466 1471 1471 1467 1460 1455 1455 1457 1459 1457 1457 1458 1459 1460 1462 1464 1465 1466 1467 1469 1471 1473 1474 1476 1478 1480 1482 1484 1486 1488 1489 1490 1492 1493 1495 1496 1496 1497 1498 1499 1500 1501
1452 1455 1463 1468 1469 1471 1461 1454 1452 1455 1461 1458 1458 1458 1459 1460 1465 1465 1464 1465 1467 1469 1471 1472 1474 1476 1478 1480 1482 1483 1485 1487 1488 1490 1491 1492 1493 1494 1495 1496 1497 1498 1499 1499
1458 1460 1463 1467 1468 1463 1457 1453 1452 1463 1462 1456 1456 1457 1458 1459 1461 1462 1463 1464 1466 1468 1470 1471 1473 1475 1477 1479 1481 1483 1485 1486 1488 1489 1490 1491 1492 1493 1494 1494 1495 1496 1497 1497
1460 1462 1464 1467 1469 1467 1456 1453 1457 1457 1454 1454 1455 1456 1457 1458 1459 1460 1462 1463 1465 1466 1468 1470 1472 1474 1477 1479 1481 1482 1484 1485 1487 1488 1489 1490 1491 1492 1492 1493 1494 1494 1495 1495
1459 1461 1461 1462 1463 1458 1455 1455 1455 1454 1454 1454 1455 1455 1456 1457 1458 1460 1461 1463 1464 1466 1468 1470 1471 1474 1476 1478 1480 1481 1483 1484 1485 1487 1487 1488 1489 1490 1491 1491 1492 1492 1493 1493
1459 1458 1459 1459 1458 1456 1455 1455 1454 1454 1454 1454 1455 1455 1456 1457 1459 1460 1461 1463 1464 1466 1467 1469 1471 1473 1475 1477 1479 1480 1482 1483 1484 1485 1486 1487 1488 1489 1489 1490 1490 1491 1491 1491
1460 1458 1459 1459 1458 1456 1455 1455 1455 1454 1454 1454 1455 1456 1456 1457 1459 1460 1461 1463 1464 1466 1467 1469 1470 1472 1474 1476 1477 1479 1480 1481 1483 1484 1485 1485 1486 1487 1488 1488 1489 1489 1490 1490
1460 1460 1460 1459 1457 1458 1457 1456 1455 1455 1455 1455 1455 1456 1457 1458 1459 1460 1461 1463 1464 1466 1467 1469 1470 1472 1473 1475 1476 1477 1479 1480 1481 1482 1483 1483 1484 1485 1486 1486 1486 1487 1488 1488